JBU1587 KJFK-TNCM

Flight info

Callsign JBU1587
Flight time N/A
Altitude 37000
Route SHIPP Y492 SQUAD/M076F370 DCT DARUX L456 HANCY/N0442F370 L456 THANK DCT SLUGO
Aircraft A320/M-SDE3FGHIRWY/LB1

Departure

Time 2026-05-09 13:01
Airport John F. Kennedy International Airport (KJFK)

Arrival

Time N/A
Airport Princess Juliana International Airport (TNCM)
Time Latitude Longitude Altitude Speed Heading
2026-05-09 12:15 40.64436 -73.77627 26 ft 0 kts 31°
2026-05-09 12:46 40.64420 -73.77640 26 ft 4 kts 31°
2026-05-09 12:46 40.64397 -73.77658 23 ft 4 kts 31°
2026-05-09 12:47 40.64379 -73.77673 24 ft 4 kts 50°
2026-05-09 12:47 40.64374 -73.77695 26 ft 4 kts 131°
2026-05-09 12:47 40.64390 -73.77716 24 ft 1 kts 136°
2026-05-09 12:47 40.64390 -73.77717 24 ft 0 kts 136°
2026-05-09 12:51 40.64389 -73.77715 24 ft 2 kts 136°
2026-05-09 12:51 40.64367 -73.77690 23 ft 8 kts 144°
2026-05-09 12:51 40.64297 -73.77638 24 ft 15 kts 151°
2026-05-09 12:51 40.64201 -73.77569 23 ft 17 kts 150°
2026-05-09 12:52 40.64100 -73.77480 23 ft 18 kts 134°
2026-05-09 12:52 40.64023 -73.77348 22 ft 15 kts 126°
2026-05-09 12:52 40.64043 -73.77287 22 ft 0 kts 28°
2026-05-09 12:54 40.64062 -73.77273 25 ft 6 kts 29°
2026-05-09 12:54 40.64108 -73.77238 25 ft 11 kts 31°
2026-05-09 12:54 40.64204 -73.77163 24 ft 24 kts 30°
2026-05-09 12:54 40.64363 -73.77037 22 ft 27 kts 31°
2026-05-09 12:55 40.64519 -73.76976 19 ft 17 kts 22°
2026-05-09 12:55 40.64626 -73.76896 20 ft 19 kts 31°
2026-05-09 12:55 40.64745 -73.76802 18 ft 21 kts 31°
2026-05-09 12:55 40.64870 -73.76705 22 ft 21 kts 31°
2026-05-09 12:56 40.64997 -73.76605 21 ft 18 kts 31°
2026-05-09 12:56 40.65067 -73.76551 21 ft 4 kts 31°
2026-05-09 12:56 40.65070 -73.76549 21 ft 1 kts 31°
2026-05-09 12:56 40.65075 -73.76545 21 ft 0 kts 31°
2026-05-09 12:57 40.65078 -73.76542 21 ft 1 kts 31°
2026-05-09 12:57 40.65081 -73.76540 21 ft 0 kts 31°
2026-05-09 12:57 40.65085 -73.76537 21 ft 2 kts 31°
2026-05-09 12:57 40.65086 -73.76536 21 ft 1 kts 31°
2026-05-09 12:58 40.65096 -73.76525 21 ft 5 kts 43°
2026-05-09 12:58 40.65092 -73.76457 24 ft 1 kts 121°
2026-05-09 12:58 40.65091 -73.76456 24 ft 0 kts 121°
2026-05-09 12:59 40.65090 -73.76453 24 ft 3 kts 121°
2026-05-09 13:00 40.65063 -73.76394 25 ft 12 kts 121°
2026-05-09 13:00 40.64962 -73.76404 22 ft 22 kts 210°
2026-05-09 13:00 40.64663 -73.76636 20 ft 82 kts 211°
2026-05-09 13:00 40.64018 -73.77141 27 ft 131 kts 211°
2026-05-09 13:01 40.63120 -73.77839 33 ft 168 kts 210°
2026-05-09 13:01 40.62109 -73.78635 556 ft 168 kts 211°
2026-05-09 13:01 40.61124 -73.79422 1266 ft 163 kts 212°
2026-05-09 13:01 40.60142 -73.80213 1746 ft 172 kts 214°
2026-05-09 13:02 40.59032 -73.81031 2001 ft 194 kts 202°
2026-05-09 13:02 40.57583 -73.81067 2297 ft 230 kts 169°
2026-05-09 13:02 40.56141 -73.79895 2885 ft 259 kts 139°
2026-05-09 13:02 40.55110 -73.77867 3707 ft 272 kts 125°
2026-05-09 13:03 40.54825 -73.77193 3978 ft 273 kts 124°
2026-05-09 13:03 40.54565 -73.76569 4234 ft 274 kts 124°
2026-05-09 13:03 40.53649 -73.74351 5107 ft 278 kts 124°
2026-05-09 13:03 40.52728 -73.72110 5997 ft 280 kts 124°
2026-05-09 13:04 40.51803 -73.69854 6864 ft 281 kts 124°
2026-05-09 13:04 40.50864 -73.67577 7697 ft 285 kts 124°
2026-05-09 13:04 40.49913 -73.65281 8510 ft 288 kts 124°
2026-05-09 13:04 40.48948 -73.62959 9269 ft 292 kts 124°
2026-05-09 13:05 40.47964 -73.60597 9960 ft 296 kts 124°
2026-05-09 13:05 40.46953 -73.58176 10361 ft 313 kts 124°
2026-05-09 13:05 40.45863 -73.55587 10542 ft 334 kts 124°
2026-05-09 13:05 40.44733 -73.52900 11014 ft 344 kts 124°
2026-05-09 13:06 40.43570 -73.50119 11622 ft 350 kts 124°
2026-05-09 13:06 40.42396 -73.47300 12224 ft 355 kts 124°
2026-05-09 13:06 40.41202 -73.44428 12831 ft 361 kts 124°
2026-05-09 13:06 40.39989 -73.41517 13457 ft 366 kts 124°
2026-05-09 13:07 40.38754 -73.38568 14019 ft 372 kts 124°
2026-05-09 13:07 40.37498 -73.35580 14545 ft 377 kts 124°
2026-05-09 13:07 40.36225 -73.32552 15031 ft 382 kts 124°
2026-05-09 13:07 40.34934 -73.29484 15517 ft 387 kts 124°
2026-05-09 13:08 40.33624 -73.26377 16011 ft 392 kts 124°
2026-05-09 13:08 40.32269 -73.23246 16479 ft 396 kts 126°
2026-05-09 13:08 40.30815 -73.20162 16981 ft 400 kts 128°
2026-05-09 13:08 40.29286 -73.17100 17478 ft 404 kts 129°
2026-05-09 13:09 40.27711 -73.14028 17985 ft 408 kts 129°
2026-05-09 13:09 40.26114 -73.10931 18470 ft 413 kts 129°
2026-05-09 13:09 40.24509 -73.07798 18926 ft 416 kts 129°
2026-05-09 13:09 40.22901 -73.04633 19425 ft 419 kts 129°
2026-05-09 13:10 40.21293 -73.01436 19919 ft 422 kts 128°
2026-05-09 13:10 40.19680 -72.98208 20412 ft 425 kts 128°
2026-05-09 13:10 40.18061 -72.94961 20870 ft 428 kts 128°
2026-05-09 13:10 40.16433 -72.91693 21333 ft 430 kts 128°
2026-05-09 13:11 40.14795 -72.88408 21802 ft 433 kts 128°
2026-05-09 13:11 40.13137 -72.85106 22244 ft 435 kts 128°
2026-05-09 13:11 40.11469 -72.81797 22692 ft 438 kts 128°
2026-05-09 13:11 40.09793 -72.78454 23136 ft 441 kts 127°
2026-05-09 13:12 40.08168 -72.75037 23567 ft 445 kts 126°
2026-05-09 13:12 40.06588 -72.71548 23936 ft 448 kts 124°
2026-05-09 13:12 40.05030 -72.68009 24303 ft 451 kts 124°
2026-05-09 13:12 40.03469 -72.64443 24676 ft 453 kts 124°
2026-05-09 13:13 40.01911 -72.60924 25024 ft 455 kts 124°
2026-05-09 13:13 40.00312 -72.57359 25380 ft 456 kts 125°
2026-05-09 13:13 39.98692 -72.53789 25734 ft 459 kts 125°
2026-05-09 13:13 39.97054 -72.50204 26089 ft 461 kts 125°
2026-05-09 13:14 39.95417 -72.46599 26443 ft 463 kts 124°
2026-05-09 13:14 39.93799 -72.42956 26787 ft 466 kts 124°
2026-05-09 13:16 39.82357 -72.16877 29114 ft 482 kts 124°
2026-05-09 13:16 39.80674 -72.13097 29456 ft 484 kts 124°
2026-05-09 13:16 39.78979 -72.09292 29778 ft 487 kts 124°
2026-05-09 13:16 39.77279 -72.05479 30100 ft 489 kts 124°
2026-05-09 13:17 39.75569 -72.01642 30405 ft 490 kts 124°
2026-05-09 13:17 39.73864 -71.97816 30758 ft 490 kts 125°
2026-05-09 13:17 39.72130 -71.94001 31076 ft 491 kts 126°
2026-05-09 13:17 39.70364 -71.90195 31390 ft 492 kts 127°
2026-05-09 13:18 39.68577 -71.86391 31645 ft 494 kts 127°
2026-05-09 13:18 39.66781 -71.82590 31944 ft 496 kts 127°
2026-05-09 13:18 39.64979 -71.78767 32250 ft 497 kts 128°
2026-05-09 13:18 39.63179 -71.74931 32572 ft 499 kts 128°
2026-05-09 13:19 39.61376 -71.71075 32891 ft 500 kts 128°
2026-05-09 13:19 39.59596 -71.67264 33196 ft 501 kts 128°
2026-05-09 13:19 39.57789 -71.63394 33523 ft 503 kts 128°
2026-05-09 13:19 39.55977 -71.59519 33837 ft 504 kts 129°
2026-05-09 13:20 39.54156 -71.55639 34130 ft 505 kts 129°
2026-05-09 13:20 39.52323 -71.51743 34360 ft 506 kts 129°
2026-05-09 13:20 39.50488 -71.47849 34625 ft 507 kts 129°
2026-05-09 13:20 39.48650 -71.43956 34908 ft 507 kts 129°
2026-05-09 13:21 39.47408 -71.41328 35097 ft 507 kts 129°
2026-05-09 13:21 39.44747 -71.36441 35451 ft 495 kts 140°
2026-05-09 13:21 39.42383 -71.33294 35715 ft 483 kts 149°
2026-05-09 13:21 39.39770 -71.30644 35977 ft 471 kts 158°
2026-05-09 13:22 39.36989 -71.28510 36191 ft 458 kts 166°
2026-05-09 13:22 39.35050 -71.27360 36346 ft 450 kts 171°
2026-05-09 13:22 39.32149 -71.25857 36575 ft 449 kts 171°
2026-05-09 13:23 39.20527 -71.19812 37095 ft 452 kts 171°
2026-05-09 13:23 39.17599 -71.18298 37098 ft 453 kts 171°
2026-05-09 13:24 39.11789 -71.15287 37106 ft 453 kts 171°
2026-05-09 13:24 39.05938 -71.12248 37109 ft 453 kts 171°
2026-05-09 13:25 39.00089 -71.09227 37112 ft 453 kts 171°
2026-05-09 13:26 38.91306 -71.04697 37121 ft 454 kts 171°
2026-05-09 13:26 38.85445 -71.01684 37100 ft 454 kts 171°
2026-05-09 13:27 38.79580 -70.98674 37125 ft 454 kts 171°
2026-05-09 13:27 38.73710 -70.95665 37130 ft 455 kts 171°
2026-05-09 13:28 38.67832 -70.92657 37133 ft 455 kts 171°
2026-05-09 13:28 38.61958 -70.89653 37092 ft 454 kts 172°
2026-05-09 13:29 38.56083 -70.86669 37087 ft 455 kts 172°
2026-05-09 13:29 38.50195 -70.83683 37106 ft 456 kts 172°
2026-05-09 13:30 38.44302 -70.80690 37117 ft 456 kts 172°
2026-05-09 13:30 38.38400 -70.77687 37101 ft 456 kts 172°
2026-05-09 13:31 38.32495 -70.74693 37119 ft 457 kts 172°
2026-05-09 13:31 38.26592 -70.71708 37132 ft 456 kts 172°
2026-05-09 13:32 38.20682 -70.68735 37145 ft 457 kts 172°
2026-05-09 13:32 38.11822 -70.64271 37126 ft 457 kts 172°
2026-05-09 13:33 38.05911 -70.61295 37141 ft 457 kts 172°
2026-05-09 13:33 37.99997 -70.58328 37155 ft 458 kts 171°